Temp
72 71 72 72 72 72 71 72 73 74 74 74 74 75 75 75 76 75 74 75 75 75 76 76 76 76 75 75 76 74 75 74 72 76 76 78 78 79 80 81 82 83 82
73 72 72 73 73 73 73 73 74 73 75 75 75 74 75 76 75 75 75 77 75 75 76 75 76 78 75 76 76 75 75 74 74 72 74 77 77 78 79 79 80 85 82
72 72 71 72 72 73 73 74 74 74 74 74 74 74 74 75 75 75 75 75 76 76 76 75 76 76 75 75 75 75 76 76 75 73 75 76 76 78 77 78 78 78 83
72 72 71 71 72 72 73 73 73 74 74 75 74 74 73 74 75 76 76 75 75 76 76 76 76 75 75 75 75 75 75 74 74 73 73 73 74 76 76 75 76 78 78
72 71 72 72 73 73 73 73 74 74 73 74 74 74 74 75 76 75 75 75 75 75 75 76 76 75 72 73 76 73 74 73 73 73 72 72 73 74 73 74 73 75 76
72 71 71 71 71 72 72 72 73 73 73 73 73 74 73 71 64 65 68 71 72 73 73 75 74 71 71 68 68 68 73 74 73 72 71 71 72 73 74 73 73 72 71
70 69 70 70 70 70 70 71 70 70 71 69 70 70 68 67 62 62 65 68 70 72 73 73 73 74 69 73 67 66 66 65 67 73 72 71 71 72 71 72 72 71 71
68 68 69 68 68 68 69 70 70 70 70 68 67 67 66 63 60 60 62 65 67 70 70 71 72 69 66 69 72 68 69 69 69 70 69 69 69 71 71 74 72 71 71
67 68 68 68 67 67 67 69 69 68 68 65 64 64 63 61 57 58 61 65 68 65 65 65 65 66 62 64 71 69 68 67 64 62 62 62 62 62 64 73 69 70 70
67 67 68 68 67 67 68 68 68 67 65 60 58 57 58 59 56 57 60 68 64 62 62 62 60 62 58 60 68 67 66 66 68 67 66 65 64 64 62 63 65 66 65
67 67 67 67 67 67 67 66 64 62 59 58 56 57 56 57 57 56 58 65 62 62 62 61 61 56 55 55 59 67 65 65 63 64 64 64 63 63 63 63 60 63 62
67 66 66 66 67 66 64 63 61 59 58 57 56 57 57 56 54 54 56 58 60 58 58 58 56 52 52 54 57 55 57 62 63 61 60 59 59 59 60 60 58 58 60
61 60 59 60 62 64 63 61 59 60 60 59 60 58 57 56 55 53 54 56 57 57 57 55 53 52 53 55 55 56 58 59 58 56 56 56 56 56 58 58 58 57 56
57 56 56 55 56 56 56 58 62 61 60 60 60 60 58 57 57 57 57 58 56 57 56 55 54 54 54 55 55 55 58 57 57 56 55 55 56 55 54 55 53 55 54
56 55 54 54 51 49 46 48 53 48 50 57 58 58 58 57 55 50 52 56 56 54 56 57 56 55 54 54 54 55 55 55 53 54 54 53 53 53 52 53 52 52 50
57 56 54 52 52 51 50 48 46 45 45 44 44 52 51 46 45 44 42 43 47 47 56 53 53 53 54 55 53 52 53 53 53 53 52 52 51 51 50 50 51 49 48
56 55 55 55 54 52 52 53 53 49 46 42 42 43 43 44 43 42 42 43 45 49 57 53 52 53 53 53 52 51 49 50 50 50 49 49 49 48 48 47 47 47 46
56 53 56 55 54 55 54 53 53 53 53 52 46 47 43 42 42 42 42 44 51 50 52 52 51 51 53 52 51 50 49 49 48 48 47 47 47 47 47 46 46 45 46
55 55 55 55 55 54 54 53 53 52 52 51 52 50 47 44 43 43 43 55 53 51 51 50 52 52 51 50 49 48 47 47 47 46 45 45 46 47 45 45 45 44 46
55 56 55 54 54 55 55 54 53 53 53 53 53 53 52 51 52 52 53 53 53 53 52 51 50 49 49 48 47 47 45 45 45 45 44 44 44 44 44 43 44 45 46
55 54 56 54 54 54 54 54 54 53 54 53 53 51 47 54 52 53 52 52 52 52 50 51 49 49 48 47 47 46 45 44 43 42 42 42 42 41 42 44 44 45 45
55 55 54 55 53 53 54 54 54 55 55 54 52 51 45 54 53 52 52 52 52 52 52 50 49 49 49 48 47 47 45 44 43 44 43 43 43 42 43 43 43 43 45
54 54 53 53 53 52 53 53 54 54 55 54 53 53 53 54 53 52 52 52 51 51 51 50 49 48 48 48 48 47 45 44 44 44 43 43 43 42 43 42 43 44 45
55 55 54 54 53 53 53 53 53 49 54 54 53 53 54 54 54 53 53 52 51 51 51 51 50 49 48 48 47 47 46 45 45 45 44 44 44 42 44 43 44 43 43
55 55 54 54 54 54 53 53 53 53 54 54 52 52 52 53 52 53 53 52 52 51 50 50 50 49 48 47 47 47 41 37 43 40 44 43 43 42 43 44 42 42 42
54 54 53 53 53 53 53 52 50 53 52 54 53 51 51 51 51 52 51 50 51 51 50 49 49 49 48 47 47 41 33 34 41 36 44 44 44 44 45 43 42 43 43
MSLP
1017.88 1018.45 1018.87 1019.14 1019.44 1019.70 1019.82 1019.89 1019.82 1019.88 1019.95 1020.16 1020.24 1020.53 1020.79 1020.98 1021.05 1021.43 1021.63 1021.78 1021.97 1022.10 1022.09 1022.00 1021.87 1021.88 1021.95 1022.10 1022.20 1022.27 1022.35 1022.46 1022.38 1021.71 1021.40 1020.82 1020.55 1020.29 1019.96 1019.69 1019.33 1019.03 1018.87
1017.25 1017.78 1018.30 1018.76 1019.07 1019.38 1019.60 1019.70 1019.76 1019.72 1019.50 1019.59 1019.84 1020.20 1020.46 1020.68 1020.94 1021.18 1021.36 1021.50 1021.74 1021.91 1021.87 1021.91 1021.74 1021.71 1021.66 1021.72 1021.89 1021.98 1022.03 1022.12 1022.08 1021.73 1021.38 1021.06 1020.72 1020.17 1019.94 1019.68 1019.51 1019.11 1019.05
1016.94 1017.42 1017.92 1018.26 1018.78 1019.08 1019.18 1019.34 1019.49 1019.54 1019.50 1019.56 1019.67 1019.86 1020.20 1020.50 1020.74 1020.92 1021.04 1021.20 1021.27 1021.38 1021.53 1021.65 1021.59 1021.71 1021.69 1021.64 1021.61 1021.61 1021.70 1021.78 1021.83 1021.78 1021.54 1021.31 1020.88 1020.49 1020.26 1019.92 1019.63 1019.32 1019.09
1016.50 1017.07 1017.46 1017.73 1018.28 1018.58 1018.94 1019.32 1019.39 1019.43 1019.46 1019.50 1019.64 1019.88 1020.06 1020.31 1020.67 1020.79 1020.86 1020.96 1020.99 1021.01 1021.07 1021.21 1021.25 1021.26 1021.21 1021.31 1021.39 1021.38 1021.46 1021.53 1021.68 1021.81 1021.71 1021.42 1021.16 1020.76 1020.64 1020.40 1019.94 1019.87 1019.75
1016.03 1016.56 1017.01 1017.45 1017.77 1018.27 1018.63 1019.00 1019.17 1019.25 1019.28 1019.38 1019.54 1019.66 1019.91 1020.24 1020.37 1020.52 1020.70 1020.79 1020.81 1020.80 1020.80 1020.78 1020.64 1020.36 1020.43 1020.63 1020.79 1021.10 1021.26 1021.30 1021.45 1021.57 1021.55 1021.47 1021.20 1020.92 1020.68 1020.65 1020.42 1020.15 1020.22
1015.55 1016.08 1016.52 1017.12 1017.59 1018.03 1018.33 1018.74 1019.00 1019.02 1019.22 1019.41 1019.49 1019.63 1020.02 1020.24 1020.52 1020.54 1020.64 1020.78 1020.82 1020.82 1020.58 1020.58 1020.58 1020.49 1020.50 1020.40 1020.52 1020.70 1020.90 1020.88 1021.03 1021.25 1021.27 1021.22 1021.16 1021.03 1020.83 1020.72 1020.60 1020.55 1020.48
1015.56 1015.95 1016.48 1016.82 1017.38 1017.91 1018.31 1018.57 1019.03 1019.27 1019.24 1019.44 1019.74 1019.82 1020.17 1020.49 1020.58 1020.88 1020.64 1020.61 1020.59 1020.63 1020.46 1020.45 1020.56 1020.70 1020.68 1020.49 1020.99 1020.87 1021.14 1021.04 1021.07 1021.09 1021.04 1021.18 1021.14 1021.01 1020.89 1020.68 1020.77 1020.95 1021.18
1016.03 1016.28 1016.68 1017.17 1017.62 1017.86 1018.16 1018.31 1018.80 1019.12 1019.51 1019.92 1020.21 1020.29 1020.27 1020.59 1020.60 1020.43 1020.78 1020.40 1020.66 1020.57 1020.34 1020.08 1020.64 1020.90 1021.07 1020.87 1021.02 1021.00 1021.34 1021.24 1021.19 1021.18 1021.40 1021.50 1021.41 1021.16 1021.10 1020.81 1020.91 1021.15 1021.44
1016.14 1015.79 1016.72 1016.85 1016.96 1018.06 1018.25 1018.42 1018.58 1019.16 1019.48 1020.15 1020.61 1020.84 1021.03 1021.19 1020.88 1020.15 1020.34 1020.34 1020.46 1020.76 1020.68 1020.80 1020.52 1021.02 1021.32 1020.96 1021.06 1021.39 1021.56 1021.62 1021.84 1021.84 1021.96 1022.14 1021.93 1021.54 1021.05 1020.81 1021.23 1021.32 1021.73
1015.45 1015.01 1016.28 1016.96 1017.58 1017.87 1018.14 1018.28 1018.58 1019.08 1019.61 1020.41 1020.87 1021.02 1021.40 1021.29 1020.75 1020.12 1020.17 1020.64 1020.70 1021.11 1021.24 1021.37 1021.48 1021.51 1021.41 1021.08 1021.18 1021.48 1021.78 1022.02 1021.93 1022.02 1022.12 1022.07 1022.16 1022.29 1022.21 1022.10 1022.08 1022.03 1022.36
1016.04 1016.57 1016.83 1017.02 1017.45 1017.80 1018.00 1018.16 1018.91 1019.36 1020.12 1020.81 1021.20 1021.46 1021.71 1021.50 1021.07 1020.68 1020.46 1020.62 1020.92 1021.65 1021.78 1021.66 1021.74 1021.62 1021.70 1021.68 1021.58 1021.83 1021.92 1022.21 1022.45 1022.62 1022.86 1023.14 1022.97 1022.84 1022.90 1023.17 1023.04 1023.01 1023.38
1016.29 1016.62 1016.78 1017.85 1017.93 1018.16 1018.37 1018.84 1019.30 1019.84 1020.34 1020.96 1021.37 1021.68 1021.78 1021.82 1021.96 1021.54 1021.02 1020.97 1021.13 1021.61 1022.00 1022.39 1022.65 1022.43 1022.27 1022.21 1022.12 1022.44 1022.36 1022.38 1022.80 1023.20 1023.55 1023.94 1024.09 1024.04 1024.14 1024.08 1024.33 1024.26 1024.46
1017.02 1017.68 1018.24 1018.55 1018.67 1018.66 1018.74 1019.00 1019.53 1020.16 1020.74 1021.20 1021.43 1021.56 1021.85 1022.27 1022.25 1022.08 1021.83 1021.82 1021.89 1022.08 1022.33 1022.57 1022.72 1022.94 1022.97 1022.98 1023.20 1023.38 1022.99 1023.24 1023.66 1024.18 1024.58 1024.98 1025.18 1025.32 1025.03 1025.00 1025.03 1025.22 1025.26
1018.35 1019.06 1019.45 1019.75 1019.53 1019.90 1019.90 1020.06 1020.35 1020.78 1021.60 1021.75 1021.69 1021.76 1022.29 1022.33 1022.54 1022.59 1022.54 1022.50 1022.46 1022.54 1022.68 1022.90 1023.23 1023.45 1023.48 1023.53 1023.64 1023.26 1023.64 1024.34 1024.52 1024.93 1025.26 1025.89 1026.01 1025.75 1025.50 1025.53 1025.68 1025.48 1025.59
1019.12 1019.38 1020.06 1020.36 1020.55 1021.02 1021.52 1021.76 1021.78 1022.37 1022.52 1022.24 1022.18 1022.28 1022.91 1023.27 1023.18 1023.37 1023.23 1022.71 1022.48 1022.81 1023.47 1023.92 1024.11 1023.87 1024.16 1024.22 1024.68 1024.56 1024.65 1024.68 1025.13 1025.69 1025.99 1026.36 1026.75 1026.72 1026.44 1026.39 1026.28 1026.37 1026.32
1019.86 1020.08 1020.54 1020.64 1020.91 1021.17 1021.60 1022.35 1022.64 1022.73 1022.80 1022.69 1022.60 1022.84 1023.63 1023.93 1023.99 1023.93 1024.07 1024.06 1023.50 1023.55 1023.26 1023.54 1024.15 1024.72 1024.32 1024.70 1025.04 1025.46 1025.83 1026.14 1026.24 1026.26 1026.63 1026.89 1026.94 1026.94 1026.85 1027.10 1027.04 1026.86 1026.93
1020.00 1020.41 1020.79 1020.78 1021.20 1021.42 1021.82 1022.02 1022.55 1022.92 1022.95 1023.03 1023.26 1023.40 1023.44 1023.92 1023.87 1024.20 1024.33 1024.31 1024.04 1024.07 1024.06 1024.35 1024.46 1024.68 1024.89 1025.07 1025.45 1026.02 1026.25 1026.78 1026.97 1027.37 1027.16 1027.48 1027.50 1027.45 1027.45 1027.50 1027.54 1027.62 1027.42
1020.44 1020.68 1020.93 1021.10 1021.25 1021.42 1021.86 1022.26 1022.51 1022.70 1022.86 1023.17 1023.21 1023.42 1023.52 1023.72 1023.96 1024.06 1023.70 1024.16 1024.15 1023.96 1024.55 1025.10 1025.64 1025.77 1025.91 1025.97 1026.23 1026.52 1026.90 1027.19 1027.45 1027.81 1027.92 1028.16 1028.24 1027.96 1028.01 1028.01 1027.82 1027.76 1027.78
1020.63 1021.00 1021.13 1021.13 1021.15 1021.40 1021.69 1021.93 1022.16 1022.43 1022.73 1023.02 1023.26 1023.53 1023.32 1023.58 1023.60 1023.81 1024.02 1024.04 1024.09 1024.44 1024.40 1025.11 1025.41 1025.93 1026.42 1026.93 1026.94 1027.02 1027.45 1027.96 1028.16 1028.04 1028.42 1028.59 1028.54 1028.64 1028.55 1028.66 1028.55 1028.36 1027.86
1021.16 1021.25 1021.39 1021.42 1021.31 1021.35 1021.50 1021.64 1021.84 1022.16 1022.48 1022.78 1022.93 1023.20 1023.54 1023.92 1023.85 1023.61 1024.10 1024.19 1024.27 1024.38 1024.62 1025.08 1025.52 1025.73 1025.98 1026.80 1027.69 1027.58 1027.99 1028.35 1028.36 1028.59 1028.85 1028.85 1028.74 1028.70 1028.84 1028.86 1028.85 1028.50 1028.19
1021.14 1021.25 1021.22 1021.38 1021.44 1021.60 1021.62 1021.68 1021.89 1022.16 1022.36 1022.61 1022.75 1022.95 1023.07 1023.12 1023.35 1023.65 1023.93 1024.01 1024.16 1024.72 1024.99 1025.44 1025.66 1026.00 1026.28 1026.54 1027.17 1027.66 1027.95 1028.08 1028.53 1028.60 1028.95 1029.02 1028.94 1028.66 1028.84 1028.84 1028.99 1028.86 1028.50
1021.17 1021.33 1021.40 1021.34 1021.60 1021.72 1021.83 1021.88 1021.92 1021.96 1022.08 1022.36 1022.69 1022.93 1022.84 1022.92 1023.26 1023.55 1023.78 1023.90 1024.16 1024.69 1025.14 1025.56 1026.07 1026.22 1026.44 1026.58 1027.14 1027.88 1027.94 1028.14 1028.40 1028.24 1028.65 1029.06 1028.88 1028.65 1028.75 1028.99 1028.88 1028.74 1028.74
1021.16 1021.30 1021.46 1021.50 1021.61 1021.76 1021.82 1021.68 1021.60 1021.60 1021.56 1021.69 1022.13 1022.31 1022.50 1022.67 1023.00 1023.46 1023.75 1023.96 1024.37 1024.86 1025.24 1025.49 1025.76 1026.48 1026.69 1027.01 1027.52 1027.73 1028.01 1028.24 1028.39 1028.50 1028.74 1028.99 1028.98 1028.73 1028.76 1028.62 1028.71 1028.73 1028.55
1020.70 1020.81 1020.98 1021.13 1021.24 1021.30 1021.44 1021.44 1021.41 1021.56 1021.52 1021.48 1021.66 1021.90 1022.09 1022.37 1022.72 1023.06 1023.42 1023.88 1024.32 1024.81 1025.22 1025.64 1025.92 1026.18 1026.55 1026.98 1027.44 1027.91 1028.02 1028.21 1028.48 1028.76 1028.89 1028.78 1028.88 1028.76 1028.57 1028.67 1028.75 1028.72 1028.74
1020.50 1020.66 1020.79 1020.74 1020.74 1020.81 1020.96 1021.12 1021.15 1021.29 1021.39 1021.53 1021.58 1021.77 1022.06 1022.43 1022.77 1023.06 1023.37 1023.78 1024.18 1024.58 1025.03 1025.43 1025.91 1026.29 1026.68 1027.13 1027.50 1027.84 1028.16 1028.48 1028.73 1028.96 1028.88 1028.72 1028.60 1028.64 1028.55 1028.75 1028.82 1028.93 1028.84
1020.36 1020.45 1020.49 1020.46 1020.46 1020.47 1020.57 1020.58 1020.67 1020.68 1020.73 1020.85 1021.02 1021.26 1021.56 1021.94 1022.20 1022.56 1023.14 1023.62 1024.01 1024.42 1024.94 1025.37 1025.85 1026.24 1026.65 1026.98 1027.31 1027.76 1028.22 1028.55 1028.72 1028.79 1028.70 1028.62 1028.54 1028.49 1028.59 1028.74 1028.76 1028.63 1028.47
Wind_Speed
9 8 7 7 6 5 5 5 6 4 6 5 6 6 7 7 5 4 4 4 4 3 3 4 4 2 2 2 1 1 1 2 2 2 2 2 3 4 5 5 6 5 5
9 8 9 6 6 5 5 6 5 6 5 5 4 5 6 6 5 6 6 5 5 5 5 4 5 3 4 3 3 3 3 4 3 3 2 2 3 2 4 5 6 6 6
9 9 7 7 6 6 6 4 4 5 5 4 4 6 6 7 6 6 6 6 6 5 4 5 5 4 5 4 4 4 3 2 2 2 2 2 2 2 3 3 6 7 5
10 10 10 10 8 8 5 5 5 5 5 4 4 4 4 5 5 5 6 5 5 5 5 5 6 5 6 6 5 6 4 3 3 3 3 2 2 2 2 3 5 4 6
11 10 10 8 7 5 5 5 5 5 5 5 4 4 5 4 3 5 5 5 5 5 5 6 5 5 7 7 4 4 5 3 3 3 2 2 2 1 2 3 2 3 3
11 11 8 8 6 6 6 4 3 4 4 4 4 4 3 3 4 3 2 4 4 6 5 5 4 3 1 3 2 4 4 4 3 2 2 2 1 1 2 2 2 2 2
8 7 6 6 6 6 5 5 3 3 3 4 3 4 5 5 3 6 4 3 3 5 5 4 5 4 5 2 4 7 7 7 3 1 2 1 1 1 1 1 1 2 2
4 5 4 4 4 4 5 4 4 2 2 2 1 2 4 3 1 3 7 2 4 4 2 2 4 0 4 4 3 4 3 5 4 2 2 2 3 4 3 1 1 1 4
4 5 1 4 5 5 4 4 3 2 3 3 2 3 2 3 7 3 2 2 2 2 4 4 5 3 4 5 3 4 4 7 11 13 12 9 14 16 9 2 3 2 2
2 3 6 4 5 6 6 5 3 3 5 4 4 5 6 2 9 9 3 4 4 3 4 4 8 3 5 4 5 5 5 4 6 6 7 11 12 12 16 10 3 3 2
8 5 5 5 4 5 4 3 4 6 6 5 5 4 3 6 6 8 4 3 5 4 2 3 4 7 8 9 5 3 4 7 8 7 7 7 8 10 9 9 10 6 3
5 5 6 4 4 4 7 6 6 7 7 6 5 4 3 5 9 9 9 9 8 6 5 5 6 12 12 10 9 8 10 8 5 6 6 7 7 7 7 7 9 9 9
8 7 5 5 4 3 6 7 6 4 4 4 4 4 3 2 2 10 11 10 8 6 4 9 10 11 9 11 12 11 9 5 6 6 6 6 5 5 5 4 5 7 9
9 7 6 5 6 7 5 5 4 4 3 3 3 3 2 2 2 2 2 3 7 5 9 4 6 9 10 7 6 8 7 5 6 6 6 5 4 5 7 5 4 2 3
7 7 6 5 7 7 7 5 5 5 3 2 3 3 2 1 1 2 4 2 4 6 7 4 2 3 4 5 5 6 6 6 7 5 6 5 5 5 7 5 6 5 6
6 5 3 4 5 4 5 4 9 8 8 9 9 7 5 7 8 9 9 9 5 0 3 4 3 2 5 5 6 7 6 7 6 6 5 5 5 5 5 5 5 5 5
5 4 3 4 4 3 2 3 4 3 7 9 9 9 9 4 1 2 6 7 3 1 2 3 3 5 5 6 6 5 6 5 6 5 5 4 4 4 4 5 5 5 6
4 6 3 3 3 3 3 2 2 1 2 2 3 2 6 8 7 3 2 2 2 5 3 3 3 3 4 5 6 6 6 6 6 5 5 4 4 4 4 4 4 5 4
4 2 2 2 2 3 3 3 2 2 2 1 1 2 4 4 4 7 6 2 5 4 6 6 6 5 5 4 5 6 6 5 4 5 4 4 4 3 4 4 4 6 5
3 4 3 2 2 2 2 2 2 2 2 2 1 1 2 2 1 2 2 4 6 6 7 7 5 6 6 6 5 5 5 4 5 4 3 3 4 4 4 4 4 4 5
2 2 4 3 2 1 1 2 3 3 4 4 3 3 5 2 3 4 5 5 5 5 5 5 5 6 6 7 6 5 6 5 3 4 3 3 3 4 4 4 3 4 5
2 1 1 1 1 1 1 2 3 3 4 4 3 3 7 4 4 5 5 5 5 5 4 6 5 5 6 6 6 5 5 5 5 5 4 3 3 4 4 3 3 3 3
3 3 3 2 2 1 1 2 3 3 4 3 5 5 5 5 5 6 6 6 6 6 6 6 7 5 4 5 5 5 5 5 5 4 4 3 3 4 3 4 4 2 2
3 3 3 3 3 3 3 3 3 4 4 3 4 5 6 6 6 7 7 6 6 6 6 6 6 8 7 6 5 4 4 5 4 4 4 4 3 3 4 2 1 3 3
4 4 5 5 4 4 4 5 5 5 5 5 5 6 6 6 6 8 8 7 7 7 8 7 6 8 9 10 8 7 6 7 5 4 3 3 3 3 2 0 1 3 4
3 4 5 4 5 5 5 4 4 4 5 5 5 5 6 7 7 8 8 8 7 7 8 7 8 11 11 9 10 9 6 8 7 5 3 3 3 2 2 1 1 2 3
Wind_Direction
181 178 178 189 198 191 201 214 215 192 200 212 213 201 198 196 201 201 214 220 227 236 231 233 257 250 268 259 220 164 174 177 238 283 269 312 302 357 351 1 1 15 3
188 179 186 180 187 198 207 213 215 221 225 215 211 216 205 198 192 205 213 209 213 227 239 233 246 240 243 236 232 235 225 205 211 275 292 303 280 332 326 345 1 3 6
179 185 177 181 187 207 217 226 216 219 224 233 214 197 199 205 203 213 213 212 213 212 226 232 252 226 244 244 233 235 233 222 222 231 290 281 285 325 333 332 351 4 35
176 185 191 185 195 194 199 202 214 223 225 230 215 234 217 203 211 213 213 224 236 234 224 217 239 229 230 217 222 229 214 200 203 229 261 275 287 325 306 357 5 13 26
180 183 196 189 179 179 176 199 212 213 223 212 206 212 217 220 218 214 217 227 229 241 258 261 246 258 247 225 206 210 198 206 202 228 251 256 270 304 0 357 346 351 70
182 186 167 158 160 175 164 167 178 213 208 202 200 184 168 105 71 31 283 230 249 259 255 257 223 213 185 82 37 293 244 212 214 212 212 240 265 314 356 2 4 19 10
165 151 148 149 153 140 142 149 167 192 183 195 202 143 130 124 20 319 289 271 254 244 252 262 214 230 277 123 75 84 67 53 18 309 252 225 261 147 302 318 24 55 78
136 123 129 125 130 150 172 169 178 161 145 155 213 186 140 126 328 0 294 233 270 282 326 44 238 6 343 321 180 111 85 53 32 21 26 8 315 303 263 288 355 66 133
153 119 110 146 164 180 187 185 159 166 116 82 75 46 41 6 343 68 330 257 224 69 50 42 80 93 318 310 162 115 82 67 78 78 82 68 57 49 43 136 46 42 76
3 129 123 162 178 179 191 164 124 127 109 118 95 82 17 346 359 350 242 182 133 120 89 73 61 72 23 86 127 136 108 101 113 82 49 44 44 43 44 47 26 89 48
126 129 115 133 164 157 156 116 110 106 108 107 102 89 71 23 1 359 113 122 127 119 81 55 33 60 58 55 59 113 110 118 89 87 77 58 50 49 48 44 43 53 91
102 104 103 127 142 130 117 113 107 118 120 123 123 105 64 39 21 30 58 79 107 112 91 53 52 59 64 56 66 72 86 95 95 86 73 56 47 49 50 64 64 69 67
81 67 58 51 70 92 117 113 118 113 126 142 155 137 122 98 59 42 48 84 92 96 85 106 82 66 55 65 53 55 64 73 82 72 75 73 59 43 41 53 65 76 72
83 77 66 59 62 43 45 41 78 110 136 154 139 109 101 93 68 65 104 91 81 81 111 90 96 93 76 75 55 63 68 51 75 89 90 74 48 48 52 37 39 28 50
80 75 61 72 79 73 57 38 79 55 23 56 60 84 93 93 82 17 339 156 139 114 118 120 130 98 97 81 66 67 75 84 80 77 80 79 63 53 51 35 46 43 57
104 97 104 101 94 93 101 89 58 84 77 70 85 93 85 57 35 22 7 347 349 107 72 133 114 29 99 103 100 89 75 75 76 89 84 80 78 76 72 54 53 56 54
94 109 109 110 112 108 102 125 133 112 93 88 81 75 87 111 115 349 9 6 4 28 102 111 118 143 133 121 113 104 104 88 89 74 74 74 79 78 64 54 48 33 45
111 128 138 145 141 139 140 144 124 87 115 118 108 145 160 174 202 225 68 79 108 61 81 95 116 101 102 110 113 114 106 104 96 89 82 65 55 68 68 59 56 60 54
70 77 83 116 158 155 140 122 121 130 120 102 103 129 129 132 192 199 168 225 156 129 125 132 134 123 117 118 110 116 108 102 103 101 91 81 70 69 67 47 63 60 56
87 115 97 84 66 118 147 150 146 161 162 182 172 188 160 177 169 131 146 146 135 138 138 136 139 134 128 130 134 114 110 117 118 111 110 104 96 77 69 69 61 49 38
123 99 108 96 107 143 168 196 205 202 206 207 204 201 179 166 153 155 151 142 136 130 132 145 144 143 146 142 141 141 139 132 120 128 117 115 117 98 90 80 69 50 31
176 211 238 215 207 237 246 228 218 216 221 208 185 197 169 147 147 147 146 144 141 141 148 148 154 155 156 152 152 163 154 148 155 139 129 141 119 103 103 91 83 79 34
198 209 214 220 224 228 261 251 248 252 254 218 183 177 183 172 167 169 166 158 158 158 156 152 147 149 146 147 160 161 159 161 151 140 128 116 124 112 108 107 98 75 6
216 217 226 228 212 218 227 241 247 261 268 248 205 202 196 192 185 179 171 167 162 158 161 163 164 158 155 154 153 161 142 134 143 152 150 135 120 116 111 83 13 339 313
212 223 229 238 243 245 243 231 226 226 237 236 218 206 199 192 187 183 177 174 172 169 172 165 160 164 168 167 165 161 148 153 160 152 149 141 126 120 97 1 343 316 310
269 253 250 242 234 231 233 241 239 233 228 233 223 203 190 188 187 178 175 176 178 177 175 174 177 175 172 175 178 172 165 177 167 171 161 154 144 140 163 221 271 278 314